Olive Branch, MS

7:08 AM CDT on August 20, 2017 (GMT -0500)
Olive Branch

Weather History for KOLV - August, 2014

Change the Weather History Date:

Friday, August 22, 2014

  Actual Average (KMEM) Record (KMEM)
Temperature  
Mean Temperature 82 °F -  
Max Temperature 93 °F 90 °F 100 °F (2000)
Min Temperature 71 °F 71 °F 56 °F (1956)
Cooling Degree Days 17    
Growing Degree Days 32 (Base 50)    
Moisture  
Dew Point 76 °F    
Average Humidity 92    
Maximum Humidity 100    
Minimum Humidity 52    
Precipitation  
Precipitation 0.00 in - - ()
Sea Level Pressure  
Sea Level Pressure 30.05 in    
Wind  
Wind Speed 5 mph (SSW)    
Max Wind Speed 12 mph    
Max Gust Speed -    
Visibility 8 miles    
Events      
Averages and records for this station are not official NWS values.
T = Trace of Precipitation, MM = Missing Value Source: NWS Daily Summary

Daily Weather History Graph

Daily Weather History Graph

Search for Another Location

Airport or City:

Trip Planner

Search our weather history database for the weather conditions in past years. The results will help you decide how hot, cold, wet, or windy it might be!

Date:

Astronomy

Aug. 22, 2014 Rise Set
Actual Time 6:24 AM CDT 7:38 PM CDT
Civil Twilight 5:58 AM CDT 8:05 PM CDT
Nautical Twilight 5:26 AM CDT 8:36 PM CDT
Astronomical Twilight 4:53 AM CDT 9:09 PM CDT
Moon 3:50 AM CDT (8/22) 5:45 PM CDT (8/22)
Length of Visible Light 14h 07m
Length of Day
13h 14m
Waning Crescent, 7% of the Moon is Illuminated
Aug 22
Waning Crescent
Aug 25
New
Sep 2
First Quarter
Sep 8
Full
Sep 15
Last Quarter

Hourly Weather History & Observations

Time (CDT) Temp. Heat Index Dew Point Humidity Pressure Visibility Wind Dir Wind Speed Gust Speed Precip Events Conditions
12:15 AM 77.0 °F - 77.0 °F 100% 30.05 in 9.0 mi South 5.8 mph - 0.00 in   Clear
12:35 AM 75.2 °F - 75.2 °F 100% 30.06 in 9.0 mi Calm Calm - 0.00 in   Clear
12:55 AM 75.2 °F - 75.2 °F 100% 30.05 in 10.0 mi Calm Calm - 0.00 in   Clear
1:15 AM 77.0 °F - 77.0 °F 100% 30.06 in 9.0 mi Calm Calm - 0.00 in   Clear
1:35 AM 77.0 °F - 77.0 °F 100% 30.06 in 10.0 mi Calm Calm - 0.00 in   Clear
1:55 AM 77.0 °F - 77.0 °F 100% 30.06 in 8.0 mi Calm Calm - 0.00 in   Clear
2:15 AM 75.2 °F - 75.2 °F 100% 30.06 in 7.0 mi South 3.5 mph - 0.00 in   Clear
2:35 AM 73.4 °F - 73.4 °F 100% 30.06 in 7.0 mi South 8.1 mph - 0.00 in   Clear
2:55 AM 73.4 °F - 73.4 °F 100% 30.06 in 9.0 mi South 5.8 mph - 0.00 in   Clear
3:15 AM 73.4 °F - 73.4 °F 100% 30.06 in 9.0 mi South 5.8 mph - 0.00 in   Clear
3:35 AM 73.4 °F - 73.4 °F 100% 30.07 in 7.0 mi South 6.9 mph - 0.00 in   Clear
3:55 AM 73.4 °F - 73.4 °F 100% 30.07 in 10.0 mi South 8.1 mph - 0.00 in   Clear
4:15 AM 73.4 °F - 73.4 °F 100% 30.06 in 10.0 mi SSW 5.8 mph - 0.00 in   Clear
4:35 AM 73.4 °F - 73.4 °F 100% 30.07 in 10.0 mi SSW 8.1 mph - 0.00 in   Clear
4:55 AM 73.4 °F - 73.4 °F 100% 30.06 in 10.0 mi SSW 6.9 mph - 0.00 in   Clear
5:15 AM 73.4 °F - 73.4 °F 100% 30.07 in 10.0 mi SSW 6.9 mph - 0.00 in   Clear
5:35 AM 71.6 °F - 71.6 °F 100% 30.07 in 9.0 mi South 6.9 mph - 0.00 in   Clear
5:55 AM 71.6 °F - 71.6 °F 100% 30.08 in 9.0 mi South 5.8 mph - N/A   Clear
6:15 AM 71.6 °F - 71.6 °F 100% 30.08 in 9.0 mi South 6.9 mph - 0.00 in   Clear
6:35 AM 71.6 °F - 71.6 °F 100% 30.09 in 9.0 mi South 5.8 mph - N/A   Clear
6:50 AM 71.6 °F - 71.6 °F 100% 30.09 in 10.0 mi SSW 6.9 mph - N/A   Partly Cloudy
7:50 AM 75.2 °F - 75.2 °F 100% 30.11 in 10.0 mi SSW 6.9 mph - N/A   Partly Cloudy
8:50 AM 78.8 °F - 78.8 °F 100% 30.11 in 7.0 mi WSW 6.9 mph - N/A   Partly Cloudy
9:50 AM 84.2 °F 96.1 °F 78.8 °F 84% 30.10 in 10.0 mi WSW 6.9 mph - N/A   Partly Cloudy
10:50 AM 87.8 °F 102.5 °F 78.8 °F 75% 30.10 in 8.0 mi SW 8.1 mph - N/A   Scattered Clouds
12:50 PM 91.4 °F 102.5 °F 75.2 °F 59% 30.08 in 8.0 mi SW 11.5 mph - N/A   Mostly Cloudy
1:50 PM 91.4 °F 100.1 °F 73.4 °F 55% 30.06 in 8.0 mi SSW 6.9 mph - N/A   Scattered Clouds
2:50 PM 91.4 °F 102.5 °F 75.2 °F 59% 30.04 in 8.0 mi Calm Calm - N/A   Mostly Cloudy
3:50 PM 93.2 °F 102.4 °F 73.4 °F 52% 30.03 in 8.0 mi SW 11.5 mph - N/A   Mostly Cloudy
4:50 PM 91.4 °F 102.5 °F 75.2 °F 59% 30.01 in 8.0 mi SSW 11.5 mph - N/A   Partly Cloudy
5:50 PM 91.4 °F 105.1 °F 77.0 °F 63% 30.00 in 10.0 mi SW 9.2 mph - N/A   Partly Cloudy
6:50 PM 87.8 °F 102.5 °F 78.8 °F 75% 29.99 in 10.0 mi SSW 8.1 mph - N/A   Partly Cloudy
7:50 PM 82.4 °F 92.4 °F 78.8 °F 89% 29.99 in 10.0 mi South 6.9 mph - N/A   Partly Cloudy
8:55 PM 80.6 °F 88.1 °F 78.8 °F 94% 30.00 in 7.0 mi South 4.6 mph - 0.00 in   Clear
9:15 PM 80.6 °F 89.3 °F 80.6 °F 100% 30.00 in 7.0 mi South 6.9 mph - 0.00 in   Clear
9:55 PM 78.8 °F - 78.8 °F 100% 30.01 in 7.0 mi SSW 6.9 mph - 0.00 in   Clear
10:15 PM 78.8 °F - 78.8 °F 100% 30.01 in 7.0 mi South 4.6 mph - 0.00 in   Clear
10:35 PM 78.8 °F - 78.8 °F 100% 30.02 in 6.0 mi SSW 4.6 mph - 0.00 in   Clear
10:55 PM 78.8 °F - 78.8 °F 100% 30.02 in 5.0 mi South 5.8 mph - 0.00 in   Clear
11:15 PM 78.8 °F - 78.8 °F 100% 30.02 in 5.0 mi South 4.6 mph - 0.00 in   Clear
11:35 PM 77.0 °F - 77.0 °F 100% 30.02 in 5.0 mi South 5.8 mph - N/A   Clear
11:55 PM 77.0 °F - 77.0 °F 100% 30.02 in 7.0 mi South 3.5 mph - 0.00 in   Clear